Location: Betzi
(47.2343°N, 9.5260°E)
Time: 22:07:11
(UTC+00:00)

USA 267 - Pass Details

Date: 27 May 2022
Orbit: 1101 x 1106 km, 123.0° (Epoch: 28 June)

Event Time Altitude Azimuth Distance (km) Brightness Sun altitude
Exits shadow 00:16:54 33° 179° (S) 1,768 3.8 -20.3°
Maximum altitude 00:19:20 46° 227° (SW) 1,451 3.5 -20.2°
Drops below altitude 10° 00:25:34 10° 299° (WNW) 2,965 5.7 -19.9°
Sets 00:28:12 0° 305° (NW) 3,926 6.4 -19.8°
